Location: Newark
(41.6500°N, 71.4833°W)
Time: 19:24:24
(UTC+00:00)

Transit 2A Rocket - Pass Details

Date: 02 February 2020
Orbit: 591 x 912 km, 66.7° (Epoch: 22 February)

Event Time Altitude Azimuth Distance (km) Brightness Sun altitude
Rises 08:32:31 0° 227° (SW) 2,827 - -38.4°
Reaches altitude 10° 08:34:51 10° 235° (SW) 1,919 - -38.0°
Maximum altitude 08:38:53 40° 306° (NW) 875 - -37.2°
Drops below altitude 10° 08:43:01 10° 17° (NNE) 1,960 - -36.5°
Exits shadow 08:44:18 - 22° (NNE) 2,451 8.0 -36.2°
Sets 08:45:26 0° 25° (NNE) 2,896 8.4 -36.0°
